Weather History for EDDT - May, 2013

Change the Weather History Date:

Tuesday, May 14, 2013

  Actual Average Record
Temperature  
Mean Temperature 54 °F -  
Max Temperature 61 °F 67 °F 82 °F (1997)
Min Temperature 48 °F 50 °F 33 °F (2004)
Degree Days  
Heating Degree Days 10    
Growing Degree Days 4 (Base 50)    
Moisture  
Dew Point 45 °F    
Average Humidity 68    
Maximum Humidity 94    
Minimum Humidity 38    
Precipitation  
Precipitation 0.00 in - - ()
Sea Level Pressure  
Sea Level Pressure 29.85 in    
Wind  
Wind Speed 8 mph ()    
Max Wind Speed 17 mph    
Max Gust Speed -    
Visibility 8.1 miles    
Events Rain    
Averages and records for this station are not official NWS values.
T = Trace of Precipitation, MM = Missing Value Source: Averaged Metar Reports

Daily Weather History Graph

Daily Weather History Graph

Search for Another Location

Airport or City:

Trip Planner

Search our weather history database for the weather conditions in past years. The results will help you decide how hot, cold, wet, or windy it might be!

Date:

Astronomy

May. 14, 2013 Rise Set
Actual Time 5:11 AM CEST 8:55 PM CEST
Civil Twilight 4:29 AM CEST 9:38 PM CEST
Nautical Twilight 3:30 AM CEST 10:38 PM CEST
Astronomical Twilight 1:53 AM CEST 12:20 AM CEST
Moon 8:36 AM CEST (5/14) No Moon Set
Length of Visible Light 17h 09m
Length of Day
15h 43m
Waxing Crescent, 17% of the Moon is Illuminated
May 14
Waxing Crescent
May 18
First Quarter
May 25
Full
May 31
Last Quarter
Jun 8
New

Hourly Weather History & Observations

Time (CEST) Temp. Dew Point Humidity Pressure Visibility Wind Dir Wind Speed Gust Speed Precip Events Conditions
12:00 AM 54 °F 47 °F 72% 29.87 in 25 mi SSW 8.9 mph - -   Mostly Cloudy
12:20 AM 53.6 °F 48.2 °F 82% 29.86 in 6.2 mi SW 10.4 mph - N/A Rain Light Rain
12:50 AM 53.6 °F 48.2 °F 82% 29.86 in 6.2 mi SSW 9.2 mph - N/A   Mostly Cloudy
1:00 AM 53 °F 49 °F 80% 29.86 in 25 mi SSW 8.9 mph - - Rain Light Rain
1:20 AM 53.6 °F 48.2 °F 82% 29.86 in 6.2 mi SSW 8.1 mph - N/A   Mostly Cloudy
2:00 AM 53 °F 48 °F 78% 29.85 in 25 mi SSW 8.9 mph - -   Partly Cloudy
2:20 AM 53.6 °F 48.2 °F 82% 29.83 in 6.2 mi SW 6.9 mph - N/A   Mostly Cloudy
2:50 AM 51.8 °F 48.2 °F 88% 29.86 in 6.2 mi West 10.4 mph - N/A Rain Light Rain
3:00 AM 53 °F 49 °F 80% 29.86 in 12 mi West 11.2 mph - - Rain Light Rain
3:20 AM 51.8 °F 46.4 °F 82% 29.83 in 6.2 mi West 6.9 mph - N/A Rain Light Rain
3:50 AM 50.0 °F 48.2 °F 94% 29.83 in - SW 3.5 mph - N/A   Clear
4:00 AM 51 °F 47 °F 83% 29.85 in 19 mi SW 4.5 mph - - Rain Light Rain
4:20 AM 50.0 °F 48.2 °F 94% 29.83 in - South 3.5 mph - N/A   Clear
4:50 AM 50.0 °F 48.2 °F 94% 29.83 in - South 3.5 mph - N/A   Clear
5:00 AM 50 °F 47 °F 88% 29.85 in 9 mi South 4.5 mph - -   Partly Cloudy
5:20 AM 50.0 °F 48.2 °F 94% 29.83 in - SSW 5.8 mph - N/A   Clear
5:50 AM 51.8 °F 48.2 °F 88% 29.83 in - SSW 6.9 mph - N/A   Clear
6:00 AM 51 °F 48 °F 87% 29.84 in 12 mi SSW 6.7 mph - -   Partly Cloudy
6:20 AM 51.8 °F 48.2 °F 88% 29.83 in 6.2 mi SSW 8.1 mph - N/A   Scattered Clouds
6:50 AM 51.8 °F 50.0 °F 94% 29.83 in 6.2 mi SSW 6.9 mph - N/A   Scattered Clouds
7:00 AM 52 °F 49 °F 87% 29.85 in 12 mi SSW 6.7 mph - -   Partly Cloudy
7:20 AM 53.6 °F 50.0 °F 88% 29.86 in 6.2 mi SSW 8.1 mph - N/A   Scattered Clouds
7:50 AM 55.4 °F 46.4 °F 72% 29.86 in - SW 11.5 mph - N/A   Clear
8:00 AM 55 °F 47 °F 68% 29.86 in 17 mi SW 11.2 mph - -   Partly Cloudy
8:20 AM 55.4 °F 46.4 °F 72% 29.86 in 6.2 mi SW 11.5 mph - N/A   Mostly Cloudy
8:50 AM 53.6 °F 42.8 °F 67% 29.86 in 6.2 mi WSW 17.3 mph - N/A Rain Light Rain Showers
9:00 AM 54 °F 43 °F 55% 29.87 in 19 mi WSW 15.7 mph - - Rain Light Rain Showers
9:20 AM 55.4 °F 42.8 °F 63% 29.86 in 6.2 mi WSW 13.8 mph - N/A   Mostly Cloudy
9:50 AM 55.4 °F 44.6 °F 67% 29.86 in 6.2 mi WSW 13.8 mph - N/A   Mostly Cloudy
10:00 AM 55 °F 44 °F 58% 29.87 in 22 mi WSW 13.4 mph - - Rain Light Rain Showers
10:20 AM 55.4 °F 42.8 °F 63% 29.86 in 6.2 mi WSW 11.5 mph - N/A   Mostly Cloudy
10:50 AM 55.4 °F 42.8 °F 63% 29.86 in 6.2 mi WSW 11.5 mph - N/A   Mostly Cloudy
11:00 AM 56 °F 44 °F 53% 29.88 in 22 mi WSW 11.2 mph - -   Partly Cloudy
11:20 AM 59.0 °F 44.6 °F 59% 29.86 in 6.2 mi SW 11.5 mph - N/A   Scattered Clouds
11:50 AM 59.0 °F 42.8 °F 55% 29.86 in 6.2 mi WSW 11.5 mph - N/A   Scattered Clouds
12:00 PM 60 °F 43 °F 42% 29.88 in 25 mi WSW 11.2 mph - -   Partly Cloudy
12:20 PM 59.0 °F 41.0 °F 51% 29.86 in 6.2 mi WSW 15.0 mph - N/A   Scattered Clouds
12:50 PM 59.0 °F 41.0 °F 51% 29.86 in 6.2 mi WSW 13.8 mph - N/A   Scattered Clouds
1:00 PM 60 °F 41 °F 38% 29.88 in 25 mi WSW 13.4 mph - -   Mostly Cloudy
1:20 PM 59.0 °F 41.0 °F 51% 29.86 in 6.2 mi WSW 13.8 mph - N/A   Scattered Clouds
1:50 PM 59.0 °F 42.8 °F 55% 29.86 in 6.2 mi SW 11.5 mph - N/A   Mostly Cloudy
2:00 PM 59 °F 42 °F 42% 29.88 in 25 mi SW 11.2 mph - -   Partly Cloudy
2:20 PM 57.2 °F 41.0 °F 55% 29.86 in 6.2 mi WSW 10.4 mph - N/A   Mostly Cloudy
2:50 PM 57.2 °F 42.8 °F 59% 29.86 in 6.2 mi WSW 9.2 mph - N/A Rain Light Rain
3:00 PM 58 °F 42 °F 45% 29.88 in 25 mi WSW 8.9 mph - - Rain Light Rain
3:20 PM 57.2 °F 42.8 °F 59% 29.86 in 6.2 mi West 10.4 mph - N/A   Mostly Cloudy
3:50 PM 57.2 °F 44.6 °F 63% 29.86 in 6.2 mi West 6.9 mph - N/A   Mostly Cloudy
4:00 PM 57 °F 44 °F 50% 29.88 in 25 mi West 6.7 mph - - Rain Light Rain
4:20 PM 55.4 °F 44.6 °F 67% 29.86 in 6.2 mi West 9.2 mph - N/A Rain Light Rain Showers
4:50 PM 55.4 °F 46.4 °F 72% 29.86 in 6.2 mi SSW 4.6 mph - N/A Rain Light Rain
5:20 PM 57.2 °F 46.4 °F 67% 29.86 in 6.2 mi South 3.5 mph - N/A   Mostly Cloudy
5:50 PM 57.2 °F 46.4 °F 67% 29.86 in 6.2 mi Variable 3.5 mph - N/A   Scattered Clouds
6:00 PM 57 °F 47 °F 60% 29.86 in 22 mi SE 4.5 mph - - Rain Light Rain
6:20 PM 57.2 °F 46.4 °F 67% 29.86 in 6.2 mi SE 3.5 mph - N/A   Mostly Cloudy
6:50 PM 59.0 °F 44.6 °F 59% 29.83 in 6.2 mi SE 4.6 mph - N/A   Mostly Cloudy
7:00 PM 58 °F 45 °F 52% 29.85 in 25 mi SSE 4.5 mph - -   Partly Cloudy
7:20 PM 57.2 °F 44.6 °F 63% 29.83 in 6.2 mi SE 4.6 mph - N/A   Mostly Cloudy
7:50 PM 57.2 °F 46.4 °F 67% 29.83 in 6.2 mi SE 2.3 mph - N/A   Mostly Cloudy
8:00 PM 58 °F 46 °F 54% 29.84 in 25 mi SE 2.2 mph - -   Partly Cloudy
8:20 PM 57.2 °F 44.6 °F 63% 29.83 in 6.2 mi SE 4.6 mph - N/A   Mostly Cloudy
8:50 PM 57.2 °F 44.6 °F 63% 29.83 in - SE 6.9 mph - N/A   Clear
9:00 PM 57 °F 45 °F 55% 29.84 in 25 mi SE 6.7 mph - -   Mostly Cloudy
9:20 PM 57.2 °F 44.6 °F 63% 29.83 in - East 3.5 mph - N/A   Clear
9:50 PM 57.2 °F 44.6 °F 63% 29.83 in - NE 4.6 mph - N/A   Clear
10:00 PM 57 °F 46 °F 56% 29.84 in 19 mi ENE 4.5 mph - -   Scattered Clouds
10:20 PM 55.4 °F 46.4 °F 72% 29.83 in - NE 3.5 mph - N/A   Clear
10:50 PM 53.6 °F 44.6 °F 72% 29.80 in - NE 5.8 mph - N/A   Clear
11:00 PM 54 °F 45 °F 64% 29.82 in 19 mi ENE 4.5 mph - -   Scattered Clouds
11:20 PM 53.6 °F 44.6 °F 72% 29.80 in - ENE 4.6 mph - N/A   Clear
11:50 PM 51.8 °F 44.6 °F 76% 29.80 in - ENE 6.9 mph - N/A   Clear